Flag for Switzerland Weather past 2 weeks in Schwyz, Schwyz, Switzerland

Now
49 °F

Cool.


Feels Like: 49 °F
Forecast: 34 / 55 °F
Wind: 2 mph from West

Location: Altdorf


UV Index: 3 (Moderate)

Visibility: N/A


Pressure: 29.86 "Hg

Humidity: 70%

Dew point: 40 °F

Location of SchwyzLocation

Historic Weather in Schwyz

°F

Schwyz temperature yesterday

Maximum temperature yesterday: 59 °F (at 5:00 PM)
Minimum temperature yesterday: 31 °F (at 7:00 AM)
Average temperature yesterday: 45 °F

Past Weeks' High & Low Weather Summary

 TemperatureHumidityPressure
High67 °F (Apr 11, 5:00 PM)96% (Apr 6, 7:00 AM)30.34 "Hg (Apr 6, 7:00 AM)
Low31 °F (Apr 17, 7:00 AM)25% (Apr 4, 1:00 AM)29.62 "Hg (Apr 3, 4:00 PM)
Average52 °F65%30.06 "Hg
* Reported Apr 3 3:00 PM — Apr 18 3:00 PM, Schwyz, Weather by CustomWeather, © 2014

Note: Actual official high and low records may vary slightly from our data, if they occured in-between our weather recording intervals... More about our weather records

Advertising

Historic Weather Conditions — Data for Previous 24 hours

 ConditionsComfort  
Time TempWeatherWind HumidityBarometerVisibility
3:00 PM
Apr 18
50 °FCool.6 mph63%29.87 "HgN/A
2:00 PM51 °FOvercast.14 mph62%29.85 "Hg10 mi
1:00 PM53 °FCool.15 mph52%29.86 "HgN/A
12:00 PM54 °FCool.18 mph46%29.85 "HgN/A
11:00 AM52 °FOvercast.2 mph55%29.88 "Hg15 mi
10:00 AM51 °FCool.3 mph58%29.89 "HgN/A
9:00 AM46 °FCool.2 mph60%29.93 "HgN/A
8:00 AM41 °FOvercast.2 mph77%29.96 "Hg12 mi
7:00 AM37 °FChilly.1 mph80%29.98 "HgN/A
6:00 AM38 °FChilly.2 mph77%29.98 "HgN/A
5:00 AM37 °FPassing clouds.1 mph79%30.00 "Hg11 mi
4:00 AM37 °FChilly.2 mph79%30.01 "HgN/A
3:00 AM38 °FChilly.2 mph78%30.02 "HgN/A
2:00 AM43 °FClear.2 mph67%30.02 "Hg11 mi
6:00 PM
Apr 17
56 °FRefreshingly cool.6 mph38%30.01 "HgN/A
5:00 PM59 °FSunny.8 mph37%30.02 "Hg15 mi
4:00 PM59 °FRefreshingly cool.8 mph44%30.03 "HgN/A
Weather by CustomWeather, © 2014

See weather overview